Location: Lawrence
(38.9720°N, 95.2350°W)
Time: 05:22:40
(UTC-05:00)

Amateur Radio Satellites - All Passes

Search period start: 28 July 2015 04:52
Search period end: 29 July 2015 04:52
Location: Lawrence, 38.9720°N, 95.2350°W

Satellite Date Start Highest point End Downlink Frequencies (MHz)
Time Altitude Azimuth
STARS 28 Jul 05:05:01 05:07:51 16° 268° (W) 05:10:31 437.465
JAS-2 28 Jul 05:10:45 05:18:27 67° 287° (WNW) 05:26:10 435.910
AO-7 28 Jul 05:19:06 05:27:25 67° 104° (ESE) 05:35:40 29.400- 29.500
CUSAT 1 28 Jul 05:27:40 05:31:01 69° 99° (E) 05:33:48 437.405
MOZHAYETS 4 28 Jul 05:35:15 05:39:40 43° 262° (W) 05:44:06
CUBESAT XI-V 28 Jul 05:40:44 05:43:50 18° 67° (ENE) 05:47:04 437.345
Gurwin Techsat 1B 28 Jul 05:43:31 05:44:23 10° 300° (WNW) 05:44:54 435.225
RS-15 28 Jul 05:45:01 05:54:24 28° 30° (NNE) 06:04:22 29.354- 29.394
Cosmos 2504 28 Jul 05:53:29 05:58:15 18° 297° (WNW) 06:02:49 435.465 / 435.565
HORYU 2 28 Jul 06:16:38 06:20:18 24° 291° (WNW) 06:23:52 437.375
DANDE 28 Jul 06:16:44 06:20:22 38° 280° (W) 06:23:15 436.750
ISS 28 Jul 06:23:18 06:26:32 61° 222° (SW) 06:29:44 145.825
Cubesat XI-IV 28 Jul 06:26:53 06:29:31 14° 89° (E) 06:32:26 437.490
GONETS M04 28 Jul 06:33:38 06:41:31 41° 88° (E) 06:49:32
JAS-2 28 Jul 06:58:35 07:02:19 14° 303° (WNW) 07:05:36 435.910
PRISM 28 Jul 07:08:38 07:12:27 35° 72° (ENE) 07:16:19 437.425
AO-7 28 Jul 07:12:51 07:19:40 28° 302° (WNW) 07:26:14 29.400- 29.500
CUBESAT XI-V 28 Jul 07:16:28 07:20:58 45° 262° (W) 07:25:28 437.345
CUTE-I 28 Jul 07:22:21 07:27:30 49° 99° (E) 07:32:39 437.470
STRAND 1 28 Jul 07:33:06 07:38:15 82° 78° (ENE) 07:43:26 437.568
Cosmos 2499 28 Jul 07:35:04 07:39:44 19° 81° (E) 07:44:57 435.465 / 435.565
RS-15 28 Jul 07:57:20 08:09:10 79° 57° (ENE) 08:21:27 29.354- 29.394
Cubesat XI-IV 28 Jul 08:04:54 08:10:12 66° 287° (WNW) 08:15:28 437.490
JUGNU 28 Jul 08:09:37 08:11:01 11° 183° (S) 08:12:23 437.505
GONETS M04 28 Jul 08:30:16 08:38:24 41° 287° (WNW) 08:46:26
PRISM 28 Jul 08:45:08 08:48:02 17° 267° (W) 08:50:47 437.425
AUBIESAT-1 28 Jul 08:53:06 08:55:48 18° 61° (ENE) 08:58:46 437.475
CUTE 1.7 + AOD 2 28 Jul 08:54:39 08:56:47 14° 90° (E) 08:59:08 437.475
SEEDS 28 Jul 08:59:32 09:01:12 12° 89° (E) 09:03:06 437.485
BRITE-PL 28 Jul 09:00:50 09:05:06 63° 101° (E) 09:09:37 437.365/2234.400
CANX-2 28 Jul 09:01:36 09:04:36 19° 92° (E) 09:07:44 2200.000
CUTE-I 28 Jul 09:03:20 09:07:16 21° 295° (WNW) 09:11:02 437.470
STRAND 1 28 Jul 09:17:08 09:18:12 10° 273° (W) 09:18:53 437.568
BEESAT 2 28 Jul 09:22:40 09:25:23 17° 45° (NE) 09:28:11 435.950
Cosmos 2499 28 Jul 09:24:48 09:32:02 70° 280° (W) 09:39:50 435.465 / 435.565
GOMX 1 28 Jul 09:34:32 09:38:58 86° 102° (ESE) 09:43:41 467.674
AAUSAT CUBESAT 2 28 Jul 09:36:09 09:39:23 22° 93° (E) 09:42:41 437.432
SO-50 28 Jul 09:39:44 09:40:33 11° 107° (ESE) 09:41:43 436.795
DOVE 4 28 Jul 09:44:50 09:49:20 68° 101° (E) 09:54:07 437.250
HO-68 28 Jul 09:46:16 09:53:20 58° 101° (ESE) 10:00:24 435.675
UWE-3 28 Jul 09:47:42 09:48:46 11° 88° (E) 09:50:09 435.000/436.395/437.385
CUBEBUG 2 28 Jul 09:52:13 09:55:06 17° 91° (E) 09:58:10 437.445
M-CUBED/EXP-1 PRIME 28 Jul 09:52:29 09:56:19 80° 253° (WSW) 10:00:33 437.505
SRMSAT 28 Jul 09:52:41 09:54:17 11° 182° (S) 09:55:52 437.500
PCSat 28 Jul 09:54:37 09:59:06 28° 109° (ESE) 10:03:43 145.827
FUNcube-1 28 Jul 09:58:28 09:58:46 10° 88° (E) 09:59:22 145.935
ANTELSAT 28 Jul 10:03:54 10:06:34 17° 67° (ENE) 10:09:26 437.575/2403.000
TIGRISAT 28 Jul 10:04:12 10:06:46 16° 66° (ENE) 10:09:32 435.000
BEESAT 3 28 Jul 10:08:14 10:12:15 60° 56° (ENE) 10:16:11 437.485
RS-15 28 Jul 10:11:07 10:20:46 28° 255° (WSW) 10:30:07 29.354- 29.394
Oscar 11 28 Jul 10:16:19 10:20:02 27° 95° (E) 10:23:48 145.826/435.025
AIST 2 28 Jul 10:25:27 10:28:23 19° 46° (NE) 10:31:23 435.215
COMPASS 1 28 Jul 10:25:28 10:29:44 82° 283° (WNW) 10:33:56 437.405
AUBIESAT-1 28 Jul 10:26:39 10:30:14 36° 259° (WSW) 10:34:06 437.475
CINEMA 3 28 Jul 10:26:52 10:31:30 85° 103° (ESE) 10:36:19 145.822/145.860
POPSAT HIP 1 28 Jul 10:27:01 10:27:48 11° 65° (ENE) 10:28:48 437.405
CUTE 1.7 + AOD 2 28 Jul 10:28:52 10:33:01 46° 286° (WNW) 10:37:07 437.475
QB50P2 28 Jul 10:32:21 10:34:13 13° 66° (ENE) 10:36:16 145.880/145.840
SEEDS 28 Jul 10:33:12 10:37:23 51° 286° (WNW) 10:41:30 437.485
CANX-2 28 Jul 10:36:44 10:40:39 34° 288° (WNW) 10:44:31 2200.000
BRITE-PL 28 Jul 10:41:48 10:43:17 11° 294° (WNW) 10:44:34 437.365/2234.400
UNISAT 6 28 Jul 10:53:41 10:57:54 58° 74° (ENE) 11:02:15 437.425
BUGSAT 1 28 Jul 10:53:42 10:55:25 13° 66° (ENE) 10:57:20 437.445
HUMSAT D 28 Jul 10:55:44 10:58:45 19° 92° (E) 11:01:54 437.325/437.525
BEESAT 2 28 Jul 10:59:48 11:03:42 46° 243° (WSW) 11:07:32 435.950
QB50P1 28 Jul 11:00:07 11:03:33 25° 70° (ENE) 11:07:03 145.935-145.965
DUCHIFAT 1 28 Jul 11:00:23 11:03:44 24° 70° (ENE) 11:07:11 145.980
NANOSAT C BR1 28 Jul 11:03:06 11:06:36 27° 70° (ENE) 11:10:11 145.865
ZACube-1 28 Jul 11:07:22 11:11:52 66° 101° (E) 11:16:24 437.345
AAUSAT CUBESAT 2 28 Jul 11:11:20 11:15:00 29° 289° (WNW) 11:18:35 437.432
SO-50 28 Jul 11:15:43 11:20:27 81° 301° (WNW) 11:25:23 436.795
UWE-3 28 Jul 11:21:15 11:25:47 68° 285° (WNW) 11:30:23 435.000/436.395/437.385
Cosmos 2499 28 Jul 11:24:51 11:27:10 11° 304° (NW) 11:28:57 435.465 / 435.565
DOVE 4 28 Jul 11:24:54 11:26:43 12° 294° (WNW) 11:28:19 437.250
CUBEBUG 2 28 Jul 11:27:38 11:32:00 45° 287° (WNW) 11:36:28 437.445
DELFI C3 28 Jul 11:27:55 11:31:57 61° 285° (WNW) 11:35:55 145.870
FUNcube-1 28 Jul 11:31:06 11:35:36 70° 285° (WNW) 11:40:09 145.935
AISAT 28 Jul 11:32:11 11:35:17 19° 93° (E) 11:38:31 437.250
HO-68 28 Jul 11:34:48 11:40:41 27° 298° (WNW) 11:46:22 435.675
PCSat 28 Jul 11:37:20 11:42:23 39° 306° (NW) 11:47:27 145.827
ANTELSAT 28 Jul 11:38:58 11:43:02 41° 262° (W) 11:47:13 437.575/2403.000
TIGRISAT 28 Jul 11:39:06 11:43:11 43° 262° (W) 11:47:22 435.000
POLYITAN 1 28 Jul 11:40:04 11:44:14 76° 77° (ENE) 11:48:27 437.675
O/OREOS (USA 219) 28 Jul 11:41:50 11:44:04 14° 53° (NE) 11:46:30 437.305
BEESAT 3 28 Jul 11:48:46 11:49:43 11° 251° (WSW) 11:50:26 437.485
50 SAT 28 Jul 11:50:16 11:53:55 34° 97° (E) 11:57:35 437.505
Oscar 11 28 Jul 11:52:33 11:56:08 24° 290° (WNW) 11:59:37 145.826/435.025
UKube-1 28 Jul 11:52:41 11:56:53 50° 100° (E) 12:01:05 .
POPSAT HIP 1 28 Jul 11:59:01 12:03:10 65° 259° (W) 12:07:21 437.405
CUBEBUG 1 28 Jul 12:00:01 12:03:17 21° 94° (E) 12:06:38 437.445
AIST 2 28 Jul 12:03:12 12:07:12 44° 244° (WSW) 12:11:07 435.215
YUBILEINY 28 Jul 12:03:58 12:12:17 45° 74° (ENE) 12:20:40 435.215
QB50P2 28 Jul 12:05:36 12:09:42 52° 260° (W) 12:13:50 145.880/145.840
ESTCUBE 1 28 Jul 12:06:15 12:10:13 31° 96° (E) 12:14:13 437.505/2401.250
VELOX 1 28 Jul 12:11:43 12:16:01 51° 100° (E) 12:20:19 145.980
DX 1 28 Jul 12:13:52 12:18:14 84° 284° (WNW) 12:22:33 434.975-435.025
BUGSAT 1 28 Jul 12:26:34 12:30:31 49° 260° (W) 12:34:28 437.445
HUMSAT D 28 Jul 12:30:40 12:34:37 35° 288° (WNW) 12:38:31 437.325/437.525
UNISAT 6 28 Jul 12:33:47 12:35:11 11° 272° (W) 12:36:19 437.425
Cosmos 2491 28 Jul 12:34:55 12:42:33 36° 87° (E) 12:50:22 435.465 / 435.565
QB50P1 28 Jul 12:35:54 12:39:22 24° 265° (W) 12:42:47 145.935-145.965
DUCHIFAT 1 28 Jul 12:35:59 12:39:29 25° 265° (W) 12:42:55 145.980
NANOSAT C BR1 28 Jul 12:39:03 12:42:26 23° 266° (W) 12:45:43 145.865
ZACube-1 28 Jul 12:45:48 12:47:45 12° 295° (WNW) 12:49:28 437.345
SPROUT 28 Jul 12:52:39 12:56:06 24° 94° (E) 12:59:37 437.525
SO-50 28 Jul 12:59:26 13:01:53 13° 322° (NW) 13:04:10 436.795
AISAT 28 Jul 13:07:57 13:11:59 35° 289° (WNW) 13:15:59 437.250
Oscar 19 28 Jul 13:15:59 13:20:26 32° 69° (ENE) 13:24:58 437.125/150
O/OREOS (USA 219) 28 Jul 13:19:28 13:24:01 64° 251° (WSW) 13:28:33 437.305
TISAT 1 28 Jul 13:21:25 13:25:07 30° 96° (E) 13:28:51 437.305
AIST 1 28 Jul 13:24:26 13:28:48 82° 278° (W) 13:33:10
50 SAT 28 Jul 13:25:37 13:28:16 17° 292° (WNW) 13:30:45 437.505
UKube-1 28 Jul 13:30:14 13:32:38 14° 294° (WNW) 13:34:52 .
CUBEBUG 1 28 Jul 13:35:51 13:39:42 31° 289° (WNW) 13:43:27 437.445
Gurwin Techsat 1B 28 Jul 13:42:06 13:45:28 18° 64° (ENE) 13:49:02 435.225
ESTCUBE 1 28 Jul 13:43:21 13:46:57 23° 291° (WNW) 13:50:26 437.505/2401.250
Cosmos 2504 28 Jul 13:45:26 13:51:47 24° 67° (ENE) 13:58:37 435.465 / 435.565
VELOX 1 28 Jul 13:49:43 13:52:11 14° 294° (WNW) 13:54:28 145.980
SWISSCUBE 28 Jul 13:55:45 13:57:50 13° 89° (E) 14:00:11 437.505
YUBILEINY 28 Jul 14:01:03 14:09:01 38° 273° (W) 14:16:49 435.215
ITUPSAT 1 28 Jul 14:13:39 14:16:54 19° 92° (E) 14:20:18 437.325
ITAMSAT 1 28 Jul 14:27:11 14:32:02 41° 71° (ENE) 14:36:56 435.822/435.867
AO-7 28 Jul 14:28:07 14:33:01 18° 52° (NE) 14:38:17 29.400- 29.500
SPROUT 28 Jul 14:28:30 14:32:09 27° 290° (WNW) 14:35:45 437.525
Cosmos 2491 28 Jul 14:30:52 14:39:16 47° 285° (WNW) 14:47:35 435.465 / 435.565
Oscar 19 28 Jul 14:55:23 14:59:48 28° 265° (W) 15:04:09 437.125/150
TISAT 1 28 Jul 14:57:30 15:00:43 21° 291° (WNW) 15:03:51 437.305
BEESAT 28 Jul 15:11:27 15:16:16 78° 104° (ESE) 15:21:01 436.000
Gurwin Techsat 1B 28 Jul 15:19:48 15:25:02 58° 259° (W) 15:30:18 435.225
JAS-2 28 Jul 15:21:42 15:27:17 50° 70° (ENE) 15:33:41 435.910
SWISSCUBE 28 Jul 15:31:27 15:36:11 60° 286° (WNW) 15:40:51 437.505
KKS-1 28 Jul 15:34:38 15:38:01 21° 94° (E) 15:41:29 437.445
Cosmos 2504 28 Jul 15:36:28 15:44:45 70° 266° (W) 15:53:17 435.465 / 435.565
HORYU 2 28 Jul 15:37:13 15:40:47 25° 69° (ENE) 15:44:28 437.375
ITUPSAT 1 28 Jul 15:50:30 15:55:02 43° 288° (WNW) 15:59:31 437.325
CUSAT 1 28 Jul 16:01:54 16:05:32 40° 79° (E) 16:10:19 437.405
ITAMSAT 1 28 Jul 16:07:34 16:11:43 23° 267° (W) 16:15:44 435.822/435.867
AO-7 28 Jul 16:16:20 16:24:40 80° 71° (ENE) 16:33:05 29.400- 29.500
GONETS M04 28 Jul 16:46:02 16:51:30 19° 62° (ENE) 16:57:27
BEESAT 28 Jul 16:51:50 16:53:31 11° 297° (WNW) 16:54:55 436.000
STARS 28 Jul 16:53:48 16:58:14 83° 284° (WNW) 17:02:39 437.465
DANDE 28 Jul 16:54:43 16:58:11 79° 263° (W) 17:02:48 436.750
JAS-2 28 Jul 17:08:11 17:12:53 23° 271° (W) 17:17:49 435.910
KKS-1 28 Jul 17:10:42 17:14:43 32° 289° (WNW) 17:18:39 437.445
HORYU 2 28 Jul 17:13:28 17:17:20 28° 264° (W) 17:21:10 437.375
MOZHAYETS 4 28 Jul 17:31:23 17:35:51 47° 98° (E) 17:40:19
Cosmos 2504 28 Jul 17:32:51 17:35:48 12° 282° (WNW) 17:38:01 435.465 / 435.565
CUSAT 1 28 Jul 17:45:43 17:48:06 14° 264° (W) 17:50:33 437.405
Cubesat XI-IV 28 Jul 17:47:15 17:51:17 23° 66° (ENE) 17:55:28 437.490
SO-50 28 Jul 18:10:14 18:11:47 11° 36° (NE) 18:13:32 436.795
AO-7 28 Jul 18:12:24 18:18:27 20° 270° (W) 18:24:04 29.400- 29.500
GONETS M04 28 Jul 18:40:58 18:49:43 87° 264° (W) 18:58:29
CUTE-I 28 Jul 18:42:54 18:48:14 73° 75° (ENE) 18:53:37 437.470
PCSat 28 Jul 18:43:29 18:47:25 20° 46° (NE) 18:51:28 145.827
MOZHAYETS 4 28 Jul 19:09:43 19:12:44 17° 294° (WNW) 19:15:34
CUBESAT XI-V 28 Jul 19:14:12 19:18:40 48° 99° (E) 19:23:06 437.345
Cosmos 2499 28 Jul 19:16:22 19:24:26 42° 73° (ENE) 19:32:46 435.465 / 435.565
Cubesat XI-IV 28 Jul 19:25:58 19:31:07 45° 261° (W) 19:36:16 437.490
STRAND 1 28 Jul 19:45:20 19:49:46 30° 95° (E) 19:54:16 437.568
SO-50 28 Jul 19:48:27 19:53:23 65° 56° (NE) 19:58:12 436.795
CANX-2 28 Jul 19:54:48 19:56:32 13° 66° (ENE) 19:58:30 2200.000
BRITE-PL 28 Jul 20:10:47 20:15:18 63° 76° (ENE) 20:19:33 437.365/2234.400
HO-68 28 Jul 20:13:44 20:20:08 39° 66° (ENE) 20:26:40 435.675
VERMONT LUNAR 28 Jul 20:19:36 20:22:28 31° 155° (SSE) 20:25:21 437.305
PCSat 28 Jul 20:25:58 20:31:20 62° 246° (WSW) 20:36:39 145.827
CUTE-I 28 Jul 20:26:21 20:28:58 13° 272° (W) 20:31:14 437.470
PRISM 28 Jul 20:26:55 20:31:02 70° 102° (ESE) 20:35:06 437.425
AAUSAT CUBESAT 2 28 Jul 20:26:58 20:28:58 14° 66° (ENE) 20:31:10 437.432
GONETS M04 28 Jul 20:40:35 20:45:28 16° 281° (W) 20:49:46
GOMX 1 28 Jul 20:41:57 20:46:18 80° 77° (ENE) 20:50:29 467.674
DOVE 4 28 Jul 20:49:49 20:53:56 56° 75° (ENE) 20:58:01 437.250
CUBEBUG 2 28 Jul 20:51:28 20:52:35 11° 65° (ENE) 20:53:55 437.445
CUBESAT XI-V 28 Jul 20:52:50 20:55:45 16° 294° (WNW) 20:58:29 437.345
PHONESAT 2.4 28 Jul 21:08:27 21:10:07 13° 146° (SE) 21:11:53 2401.200-2431.200
Cosmos 2499 28 Jul 21:09:34 21:17:38 43° 271° (W) 21:25:44 435.465 / 435.565
Oscar 11 28 Jul 21:10:33 21:13:35 19° 68° (ENE) 21:16:45 145.826/435.025
COMPASS 1 28 Jul 21:15:07 21:19:14 56° 75° (ENE) 21:23:24 437.405
CUTE 1.7 + AOD 2 28 Jul 21:19:59 21:24:14 78° 257° (WSW) 21:28:32 437.475
SEEDS 28 Jul 21:23:30 21:27:44 89° 255° (WSW) 21:32:02 437.485
STRAND 1 28 Jul 21:24:30 21:28:57 30° 292° (WNW) 21:33:18 437.568
CINEMA 3 28 Jul 21:27:50 21:31:56 65° 76° (ENE) 21:36:04 145.822/145.860
CANX-2 28 Jul 21:27:50 21:32:02 56° 260° (W) 21:36:15 2200.000
SO-50 28 Jul 21:30:43 21:33:26 14° 251° (WSW) 21:35:52 436.795
M-CUBED/EXP-1 PRIME 28 Jul 21:37:52 21:38:04 10° 91° (E) 21:38:37 437.505
HUMSAT D 28 Jul 21:48:08 21:49:28 12° 65° (ENE) 21:51:02 437.325/437.525
BRITE-PL 28 Jul 21:53:33 21:54:16 10° 271° (W) 21:54:41 437.365/2234.400
VERMONT LUNAR 28 Jul 21:55:54 21:59:05 78° 349° (N) 22:02:16 437.305
AAUSAT CUBESAT 2 28 Jul 22:00:07 22:04:10 49° 261° (W) 22:08:17 437.432
HO-68 28 Jul 22:01:14 22:07:51 39° 263° (W) 22:14:26 435.675
ZACube-1 28 Jul 22:02:22 22:06:17 41° 73° (ENE) 22:10:18 437.345
AUBIESAT-1 28 Jul 22:08:20 22:11:42 20° 96° (E) 22:15:10 437.475
DELFI C3 28 Jul 22:13:24 22:17:24 65° 76° (ENE) 22:21:27 145.870
UWE-3 28 Jul 22:17:12 22:21:22 85° 77° (ENE) 22:25:37 435.000/436.395/437.385
RS-15 28 Jul 22:19:20 22:29:45 57° 113° (ESE) 22:40:36 29.354- 29.394
CUBEBUG 2 28 Jul 22:24:42 22:28:47 60° 260° (W) 22:32:58 437.445
FUNcube-1 28 Jul 22:25:35 22:29:44 78° 77° (ENE) 22:33:59 145.935
AISAT 28 Jul 22:29:32 22:32:08 16° 66° (ENE) 22:34:55 437.250
DOVE 4 28 Jul 22:31:31 22:32:10 10° 271° (W) 22:32:31 437.250
50 SAT 28 Jul 22:33:51 22:36:20 17° 68° (ENE) 22:38:56 437.505
PHONESAT 2.4 28 Jul 22:44:14 22:47:40 55° 160° (SSE) 22:51:07 2401.200-2431.200
Oscar 11 28 Jul 22:45:34 22:49:33 35° 263° (W) 22:53:32 145.826/435.025
UKube-1 28 Jul 22:46:20 22:50:16 36° 71° (ENE) 22:54:16 .
Cosmos 2491 28 Jul 22:47:39 22:52:19 16° 60° (ENE) 22:57:33 435.465 / 435.565
UNISAT 6 28 Jul 22:48:00 22:50:30 15° 90° (E) 22:53:13 437.425
COMPASS 1 28 Jul 22:54:01 22:55:20 11° 272° (W) 22:56:23 437.405
CUBEBUG 1 28 Jul 22:55:45 22:58:26 17° 67° (ENE) 23:01:15 437.445
ISS 28 Jul 23:01:20 23:04:35 78° 141° (SE) 23:07:50 145.825
ESTCUBE 1 28 Jul 23:04:55 23:08:38 26° 69° (ENE) 23:12:25 437.505/2401.250
DX 1 28 Jul 23:08:01 23:12:20 72° 75° (ENE) 23:16:41 434.975-435.025
VELOX 1 28 Jul 23:08:06 23:12:12 39° 72° (ENE) 23:16:20 145.980
M-CUBED/EXP-1 PRIME 28 Jul 23:08:39 23:13:29 83° 288° (WNW) 23:18:14 437.505
HUMSAT D 28 Jul 23:20:42 23:24:45 57° 260° (W) 23:28:52 437.325/437.525
POLYITAN 1 28 Jul 23:28:09 23:30:16 14° 90° (E) 23:32:34 437.675
TIGRISAT 28 Jul 23:31:29 23:35:53 41° 98° (E) 23:40:21 435.000
ANTELSAT 28 Jul 23:31:33 23:36:00 43° 98° (E) 23:40:31 437.575/2403.000
VERMONT LUNAR 28 Jul 23:32:48 23:35:58 68° 6° (N) 23:39:07 437.305
AIST 1 28 Jul 23:33:34 23:36:46 21° 73° (ENE) 23:40:03
ZACube-1 28 Jul 23:40:31 23:42:56 14° 270° (W) 23:45:11 437.345
AUBIESAT-1 28 Jul 23:42:03 23:46:35 43° 293° (WNW) 23:51:01 437.475
POPSAT HIP 1 28 Jul 23:45:54 23:49:08 21° 94° (E) 23:52:29 437.405
SPROUT 28 Jul 23:46:28 23:49:09 17° 67° (ENE) 23:51:58 437.525
QB50P2 28 Jul 23:52:18 23:55:52 26° 95° (E) 23:59:32 145.880/145.840
BEESAT 3 29 Jul 00:01:12 00:03:23 15° 110° (ESE) 00:05:44 437.485
AISAT 29 Jul 00:04:09 00:08:23 45° 261° (W) 00:12:38 437.250
50 SAT 29 Jul 00:07:10 00:10:41 32° 264° (W) 00:14:12 437.505
BUGSAT 1 29 Jul 00:10:10 00:13:26 24° 95° (E) 00:16:48 437.445
TISAT 1 29 Jul 00:12:57 00:15:58 20° 69° (ENE) 00:19:07 437.305
DUCHIFAT 1 29 Jul 00:20:50 00:24:59 53° 100° (E) 00:29:09 145.980
QB50P1 29 Jul 00:21:07 00:25:18 56° 100° (E) 00:29:29 145.935-145.965
PHONESAT 2.4 29 Jul 00:22:09 00:25:39 68° 356° (N) 00:29:08 2401.200-2431.200
UNISAT 6 29 Jul 00:23:04 00:27:38 53° 286° (WNW) 00:32:12 437.425
UKube-1 29 Jul 00:23:30 00:26:33 18° 267° (W) 00:29:29 .
NANOSAT C BR1 29 Jul 00:23:55 00:28:07 59° 100° (E) 00:32:19 145.865
CUBEBUG 1 29 Jul 00:30:18 00:34:29 43° 262° (W) 00:38:38 437.445
RS-15 29 Jul 00:32:13 00:42:34 44° 316° (NW) 00:53:13 29.354- 29.394
ISS 29 Jul 00:39:02 00:41:20 17° 338° (NNW) 00:43:36 145.825
ESTCUBE 1 29 Jul 00:41:28 00:45:25 28° 265° (W) 00:49:19 437.505/2401.250
Cosmos 2491 29 Jul 00:42:05 00:50:51 83° 83° (E) 00:59:35 435.465 / 435.565
VELOX 1 29 Jul 00:45:56 00:48:57 17° 268° (W) 00:51:49 145.980
M-CUBED/EXP-1 PRIME 29 Jul 00:46:33 00:47:33 10° 303° (WNW) 00:48:17 437.505
BEESAT 2 29 Jul 00:51:46 00:55:35 41° 116° (ESE) 00:59:30 435.950
SWISSCUBE 29 Jul 01:01:25 01:03:56 15° 64° (ENE) 01:06:40 437.505
POLYITAN 1 29 Jul 01:02:21 01:06:28 46° 287° (WNW) 01:10:34 437.675
YUBILEINY 29 Jul 01:03:09 01:11:26 53° 91° (E) 01:19:52 435.215
TIGRISAT 29 Jul 01:08:59 01:12:22 20° 292° (WNW) 01:15:39 435.000
ANTELSAT 29 Jul 01:09:10 01:12:30 19° 293° (WNW) 01:15:43 437.575/2403.000
VERMONT LUNAR 29 Jul 01:09:39 01:12:41 44° 202° (SSW) 01:15:40 437.305
AIST 1 29 Jul 01:10:47 01:14:28 28° 269° (W) 01:18:03
ITUPSAT 1 29 Jul 01:19:32 01:22:57 20° 67° (ENE) 01:26:30 437.325
SPROUT 29 Jul 01:20:55 01:24:57 40° 262° (W) 01:28:58 437.525
POPSAT HIP 1 29 Jul 01:21:19 01:25:02 29° 289° (WNW) 01:28:43 437.405
QB50P2 29 Jul 01:28:12 01:31:41 24° 290° (WNW) 01:35:06 145.880/145.840
Oscar 19 29 Jul 01:30:34 01:32:17 12° 88° (E) 01:34:20 437.125/150
BEESAT 3 29 Jul 01:37:02 01:40:58 46° 305° (NW) 01:44:56 437.485
BUGSAT 1 29 Jul 01:45:31 01:48:51 24° 290° (WNW) 01:52:08 437.445
TISAT 1 29 Jul 01:47:50 01:51:34 31° 263° (W) 01:55:18 437.305
O/OREOS (USA 219) 29 Jul 01:53:04 01:55:47 17° 101° (E) 01:58:42 437.305
DUCHIFAT 1 29 Jul 01:58:19 02:00:23 13° 294° (WNW) 02:02:15 145.980
QB50P1 29 Jul 01:58:51 02:00:45 12° 294° (WNW) 02:02:27 145.935-145.965
AIST 2 29 Jul 01:59:26 02:03:32 49° 117° (ESE) 02:07:41 435.215
PHONESAT 2.4 29 Jul 02:00:14 02:03:45 88° 9° (N) 02:07:14 2401.200-2431.200
NANOSAT C BR1 29 Jul 02:01:51 02:03:30 12° 295° (WNW) 02:04:56 145.865
BEESAT 29 Jul 02:16:31 02:21:19 77° 74° (ENE) 02:26:07 436.000
Cosmos 2504 29 Jul 02:18:11 02:21:20 14° 79° (E) 02:25:03 435.465 / 435.565
BEESAT 2 29 Jul 02:30:47 02:33:51 19° 313° (NW) 02:36:51 435.950
KKS-1 29 Jul 02:32:17 02:35:11 18° 67° (ENE) 02:38:14 437.445
SWISSCUBE 29 Jul 02:36:35 02:41:20 60° 259° (W) 02:46:06 437.505
Cosmos 2491 29 Jul 02:41:06 02:46:46 18° 279° (W) 02:51:55 435.465 / 435.565
ITAMSAT 1 29 Jul 02:42:30 02:45:26 16° 90° (E) 02:48:36 435.822/435.867
RS-15 29 Jul 02:51:43 02:59:13 19° 349° (NNW) 03:06:45 29.354- 29.394
ITUPSAT 1 29 Jul 02:55:59 03:00:34 42° 262° (W) 03:05:08 437.325
YUBILEINY 29 Jul 03:01:03 03:08:42 32° 291° (WNW) 03:16:12 435.215
Oscar 19 29 Jul 03:07:07 03:12:18 75° 286° (WNW) 03:17:28 437.125/150
O/OREOS (USA 219) 29 Jul 03:30:39 03:34:54 42° 296° (WNW) 03:39:11 437.305
Gurwin Techsat 1B 29 Jul 03:37:07 03:42:24 62° 101° (E) 03:47:40 435.225
PHONESAT 2.4 29 Jul 03:38:29 03:41:31 28° 208° (SSW) 03:44:30 2401.200-2431.200
AIST 2 29 Jul 03:39:24 03:42:25 18° 315° (NW) 03:45:19 435.215
STARS 29 Jul 03:49:16 03:53:36 74° 76° (ENE) 03:57:58 437.465
ISS 29 Jul 03:54:31 03:56:20 14° 18° (NNE) 03:58:11 145.825
Cosmos 2504 29 Jul 04:05:27 04:12:28 86° 277° (W) 04:20:01 435.465 / 435.565
KKS-1 29 Jul 04:07:22 04:11:33 40° 262° (W) 04:15:44 437.445
JAS-2 29 Jul 04:15:52 04:23:32 57° 99° (E) 04:31:11 435.910
AO-7 29 Jul 04:20:13 04:26:57 28° 94° (E) 04:33:55 29.400- 29.500
ITAMSAT 1 29 Jul 04:20:18 04:25:24 58° 287° (WNW) 04:30:27 435.822/435.867
MOZHAYETS 4 29 Jul 04:32:02 04:36:19 39° 72° (ENE) 04:40:40
